www.pogodaiklimat.ru

Погода и климат >> Архив погоды >> Иран >> Kish Island


ПОГОДА в Kish Island

  • Прогноз погоды в Kish Island
  • Монитор погоды в Kish Island
  • Климат города

АРХИВ ПОГОДЫ в Kish Island

Время (UTC), дата Ветер
(напр.,м/с)
 
Видим.   Явления Облачность Т
(С)
Тd
(С)
f
(%)
Тe
(С)
Тes
(С)
Комфортность P
(гПа)
Po
(гПа)
Тmin
(С)
Tmax
(С)
R
(мм)
R24
(мм)
S
(см)
03 9.07 В 4 2000 м дымка ясно +31.0 +29.7 93 +56 +58 опасность
перегрева
996.3 993.0 +30.4
06 9.07 ЮВ 5 2800 м пыль ясно +34.4 +28.5 71 +56 +64 опасность
перегрева
997.0 993.7
09 9.07 ЮВ 4 2800 м пыль ясно +36.2 +26.4 57 +52 +67 опасность
перегрева
995.9 992.6
12 9.07 ЮЗ 2 3000 м пыль 1/0
[Ac trans]
+38.0 +23.4 43 +48 +57 опасность
перегрева
994.0 990.7
15 9.07 СЗ 3 3000 м мгла 6/0
[Ac trans Cc]
+35.0 +25.2 57 +49 +49 опасность
перегрева
994.0 990.7 +39.8
18 9.07 З 2 3000 м мгла 4/0
[Ac trans Cc]
+33.0 +26.8 70 +51 +51 опасность
перегрева
995.1 991.8
21 9.07 штиль 0 2500 м дымка 1/0
[Ac trans]
+31.4 +29.0 87 +54 +54 опасность
перегрева
994.0 990.7
00 10.07 штиль 0 1500 м дымка ясно +30.4 +29.2 93 +53 +53 опасность
перегрева
993.5 990.2
03 10.07 ЮВ 3 2500 м дымка 4/0
[Ac trans]
+31.8 +29.4 87 +56 +57 опасность
перегрева
995.1 991.8 +30.2
06 10.07 ЮВ 5 3000 м мгла 1/0
[Ac trans]
+37.6 +29.6 64 +63 +71 опасность
перегрева
995.6 992.4
09 10.07 ЮВ 5 3000 м мгла 1/0
[Ac trans]
+41.2 +26.5 44 +57 +67 опасность
перегрева
994.7 991.5
12 10.07 Ю 3 3000 м мгла ясно +39.0 +27.0 51 +56 +64 опасность
перегрева
994.1 990.8
15 10.07 СВ 2 4000 м мгла ясно +38.4 +26.1 50 +54 +54 опасность
перегрева
994.1 990.8 +42.0
18 10.07 штиль 0 4000 м мгла 1/0
[Ac trans]
+34.8 +25.4 58 +49 +49 опасность
перегрева
995.2 991.9
21 10.07 СЗ 2 4000 м дымка 1/0
[Ac trans]
+32.4 +29.2 83 +56 +56 опасность
перегрева
994.9 991.6
00 11.07 Ю 3 4000 м дымка 1/0
[Ac trans]
+31.0 +29.1 90 +54 +54 опасность
перегрева
993.8 990.5
03 11.07 СВ 2 2500 м дымка 3/0
[Ci fib]
+31.8 +30.0 90 +58 +60 опасность
перегрева
995.2 991.9 +30.6
06 11.07 ЮВ 5 4000 м мгла ясно +37.8 +28.0 58 +58 +66 опасность
перегрева
996.2 992.9
09 11.07 Ю 2 4000 м мгла 1/0
[Ci fib]
+39.8 +26.4 47 +55 +77 опасность
перегрева
995.9 992.6
12 11.07 ЮЗ 3 4000 м мгла ясно +40.4 +25.8 44 +55 +62 опасность
перегрева
994.1 990.8
15 11.07 З 4 3000 м мгла ясно +36.0 +26.4 58 +53 +53 опасность
перегрева
993.9 990.6 +41.2
18 11.07 З 4 3000 м мгла ясно +33.4 +27.7 72 +53 +53 опасность
перегрева
994.9 991.6
21 11.07 З 6 3000 м мгла ясно +33.2 +26.9 70 +51 +51 опасность
перегрева
993.1 989.9
00 12.07 СЗ 4 3000 м мгла ясно +32.4 +27.8 77 +53 +53 опасность
перегрева
992.1 988.8
03 12.07 З 4 5000 м дымка ясно +32.4 +28.9 82 +56 +57 опасность
перегрева
993.4 990.2 +31.4
06 12.07 ЮВ 5 5000 м мгла ясно +36.6 +27.1 58 +54 +63 опасность
перегрева
994.5 991.2
09 12.07 Ю 3 5000 м мгла ясно +39.2 +25.5 46 +53 +71 опасность
перегрева
993.8 990.5
12 12.07 З 2 5000 м мгла ясно +38.0 +28.7 59 +60 +69 опасность
перегрева
992.6 989.4
15 12.07 СЗ 3 6000 м мгла 1/0
[Ac trans]
+35.6 +28.0 65 +56 +56 опасность
перегрева
992.3 989.1 +42.0
18 12.07 СЗ 2 5000 м дымка ясно +32.8 +28.9 80 +56 +56 опасность
перегрева
992.9 989.7
21 12.07 СЗ 2 2000 м дымка ясно +31.8 +30.1 91 +59 +59 опасность
перегрева
991.9 988.7
00 13.07 штиль 0 1500 м дымка ясно +31.2 +30.7 97 +60 +60 опасность
перегрева
991.2 988.0
03 13.07 ЮВ 4 1500 м дымка {туман} 1/1 450 м
[St]
+31.6 +31.6 100 +64 +65 опасность
перегрева
992.8 989.5 +30.8
06 13.07 В 5 5000 м мгла {туман} ясно +36.4 +28.7 65 +59 +67 опасность
перегрева
993.9 990.4
09 13.07 ЮВ 4 5000 м мгла ясно +40.2 +25.4 43 +53 +68 опасность
перегрева
993.5 990.3
12 13.07 ЮЗ 3 5000 м мгла ясно +40.0 +26.1 46 +55 +63 опасность
перегрева
992.2 989.0
15 13.07 З 3 5000 м мгла 1/0
[Cc]
+35.6 +28.7 68 +58 +58 опасность
перегрева
992.2 989.0 +42.4
18 13.07 З 3 4000 м дымка 3/0
[Cc]
+33.0 +32.0 95 +68 +68 опасность
перегрева
993.3 990.1
21 13.07 СЗ 2 3000 м дымка ясно +32.2 +30.6 91 +61 +61 опасность
перегрева
992.7 989.5
00 14.07 штиль 0 3000 м дымка ясно +30.6 +29.8 96 +56 +56 опасность
перегрева
991.9 988.6
03 14.07 штиль 0 3000 м дымка 3/0
[Ci fib]
+31.6 +29.6 89 +57 +59 опасность
перегрева
993.7 990.4 +30.2
06 14.07 В 7 4000 м мгла ясно +35.6 +29.0 69 +59 +64 опасность
перегрева
994.5 991.2
09 14.07 Ю 6 4000 м мгла ясно +38.0 +27.4 55 +56 +65 опасность
перегрева
994.5 991.2
12 14.07 ЮЗ 2 4000 м мгла ясно +38.0 +27.4 55 +56 +66 опасность
перегрева
993.0 989.7
15 14.07 З 4 2500 м мгла 1/0
[Ci fib]
+34.2 +27.4 68 +53 +53 опасность
перегрева
992.9 989.6 +39.4
18 14.07 СЗ 5 2500 м дымка 1/0
[Ci fib]
+32.4 +29.2 83 +56 +56 опасность
перегрева
993.6 990.4
21 14.07 З 4 2000 м дымка ясно +31.6 +29.3 88 +56 +56 опасность
перегрева
992.5 989.2
00 15.07 штиль 0 800 м туман ясно +30.4 +29.5 95 +55 +55 опасность
перегрева
992.8 989.6
03 15.07 ЮВ 2 800 м туман ясно +31.0 +30.2 96 +58 +60 опасность
перегрева
994.0 990.7 +30.2
06 15.07 В 2 2800 м мгла {туман} ясно +35.8 +28.0 64 +56 +72 опасность
перегрева
995.0 991.7
09 15.07 ЮВ 4 3000 м мгла ясно +37.2 +26.6 55 +54 +69 опасность
перегрева
994.2 991.0
12 15.07 ЮЗ 4 4000 м мгла ясно +36.8 +26.1 54 +52 +59 опасность
перегрева
993.1 989.9
15 15.07 З 3 4000 м мгла ясно +34.0 +28.7 74 +57 +57 опасность
перегрева
992.2 989.0 +38.2
18 15.07 З 2 3000 м дымка ясно +32.6 +29.1 82 +56 +56 опасность
перегрева
992.7 989.5
21 15.07 штиль 0 2000 м дымка ясно +31.2 +29.3 90 +55 +55 опасность
перегрева
991.5 988.3
00 16.07 ЮВ 2 1200 м дымка ясно +30.6 +29.0 91 +53 +53 опасность
перегрева
991.8 988.6

 

Местоположение метеостанции Kish Island (Иран): широта 26.50 долгота 53.98 высота над уровнем моря 30 м.

В архиве по умолчанию представлена погода в Kish Island за последнюю неделю. Архивные данные за месяц целиком и за предыдущие месяцы, начиная с января 2011 года, Вы можете получить, выбрав интересующий диапазон дат из раскрывающегося списка и нажав кнопку "Ввод!".


*Определитесь, кто Вы:
робот инопланетянин человек

Внимание! Время в таблицах - всемирное. Для получения местного времени необходимо прибавить поправку, которая в Kish Island равна 3.5 ч.

Смотрите также архив погоды в соседних городах и на ближайших метеорологических станциях:

Погода в Bandar Lengeh (Иран) (85 км)
Погода в Sirri Island (Иран) (87 км)
Погода в Abu Musa Island (Иран) (113 км)
Погода в Dubai (ОАЭ) (194 км)
Погода в Sharjah (ОАЭ) (202 км)
Погода в Dubai Al Maktoum Int Airport (ОАЭ) (214 км)
Погода в Ras Al Khaimah Int Airport (ОАЭ) (218 км)
Погода в Khasab Airport (Оман) (227 км)
Погода в Khasab (Оман) (228 км)
Погода в Abu Dhabi Bateen Airport (ОАЭ) (235 км)

Пояснения к столбцам:

Ветер - указаны скорость ветра в м/с - средняя за 10 мин, порывы в срок и между сроками (в фигурных скобках) и направление, откуда дует ветер: С - северный, СВ - северо-восточный, В - восточный, ЮВ - юго-восточный, Ю - южный, ЮЗ - юго-западный, З - западный, СЗ - северо-западный.
Видимость - горизонтальная дальность видимости в метрах или километрах. При видимости от 1 до 10 км при отсутствии осадков обычно наблюдается дымка, при ухудшении видимости до 1 км и менее - туман. В сухую погоду видимость может ухудшаться дымом, пылью или мглою.
Явления - указаны атмосферные явления, наблюдавшиеся в срок или в последний час перед сроком; фигурными скобками обозначены явления, наблюдавшиеся между сроками (за 1-3 часа до срока); квадратными скобками обозначены град или гололедные отложения с указанием их диаметра в мм.
Облачность - указаны через наклонную черту общая и нижняя облачность в баллах и высота нижней границы облаков в метрах; квадратными скобками обозначены формы облаков: Ci - перистые, Cs - перисто-слоистые, Cc - перисто-кучевые, Ac - высококучевые, As - высокослоистые, Sc - слоисто-кучевые, Ns - слоисто-дождевые, Cu - кучевые, Cb - кучево-дождевые. Подробнее классификацию облаков см. в Атласе облаков (PDF).
T - Температура воздуха - температура, измеренная на высоте 2 м над землей.
Td - Температура точки росы - температура, при понижении до которой содержащийся в воздухе водяной пар достигнет насыщения.
f - Относительная влажность воздуха - влажноcть воздуха, измеренная на высоте 2 м над землей.
Te - Эффективная температура - температура, которую ощущает одетый по сезону человек в тени. Характеристика душности погоды. При расчете учитывается влияние влажности воздуха и скорости ветра на теплоощущения человека.
Tes - Эффективная температура на солнце - температура, которую ощущает человек, с поправкой на солнечный нагрев. Характеристика знойности погоды. Зависит от высоты солнца над горизонтом, облачности и скорости ветра. Ночью, в пасмурную погоду, а также при ветре 12 м/с и более поправка равна нулю.
P - Атмосферное давление - приведенное к уровню моря атмосферное давление.
Po - Атмосферное давление - измеренное на уровне метеостанции атмосферное давление.
Tmin - Минимальная температура - минимум температуры воздуха на высоте 2 м над землей.
Tmax - Максимальная температура - максимум температуры воздуха на высоте 2 м над землей.
R - Количество осадков - Количество выпавших осадков за период времени, мм. При наведении курсора мыши на число - период времени, за который выпало указанное количество осадков.
R24 - Количество осадков - Количество выпавших осадков за 24 часа, мм.
S - Снежный покров - Высота снежного покрова, см. При наведении курсора мыши на число - состояние снежного покрова и степень покрытия местности в баллах.